COSMOS 2251 DEB, 37498

Orbit data source: Space-Track

COSMOS 2251 DEB, 37498 is space debris in LEO originally from a launch on Wed, 16 Jun 1993 UTC launched from the Plesetsk Missile And Space Complex (PKMTR). The debris from Iridium 33, an American commercial communications satellite, has been tracked extensively since its accidental collision with the defunct Russian satellite Cosmos 2251 in 2009. This event, occurring at high speed in low Earth orbit (LEO), generated thousands of pieces of space debris, significantly increasing the risk of further collisions. The Iridium 33 debris cloud has impacted space traffic management and orbital debris mitigation strategies, making it a subject of ongoing study in space situational awareness.

Loading next visibility...
Identifier
37498, 1993-036BMB
Orbit
LEO
Country
Flag of CISCIS
Related business
Manufacturer
Unknown
Mission
Spacecraft
Bus & Motor
Unknown
Mass
Unknown
Launch date (UTC)
1993-06-16 (33 years ago)
Launch vehicle
Unknown
Launch site
Plesetsk Missile And Space Complex (PKMTR)
Object type
Payload
Rocket body
Debris
Shape & HBR
Unknown shape, 0.1 m
Radar Cross Section
Small (<0.1 m²)

Expand to show TLE details & history
Last TLE update: 23 hours ago

TLE from 23 hours ago
0 COSMOS 2251 DEB
1 37498U 93036BMB 25351.24150039  .00002112  00000-0  49859-3 0  9996
2 37498  74.0349 175.3650 0012166 238.5270 121.4705 14.54797017654202
Epoch: 2025-12-17T05:47Z
TLE epoch observation values (Epoch: 2025-12-17T05:47:45.633Z)
Latitude
0.00002°
Longitude
2.31069°
Altitude
717.168 km
Speed
7.495 km/s
True Right ascension
11h 41m 27s
True Declination
0° 00' 00"
Sunlit
Object was in daylight at epoch
Visualization orbit readout
Latitude
Unknown
Longitude
Unknown
Altitude
Unknown
Speed
Unknown
Apparent Right ascension
Unknown
Apparent Declination
Unknown
Sunlit
N/A
Visualization observer readout
Local Sidereal Time
04:05:00
Azimuth
Unknown
Elevation
Unknown
Doppler factor
Unknown
Orbital elements
Apogee altitude
716.248 km
Perigee altitude
699.007 km
Semi-major axis
7,085.764 km
Eccentricity
0.00122
Inclination
74.0349°
RAAN
175.365°
Arg. of periapsis
238.527°
True anomaly
121.58931°
Mean anomaly
121.4705°
Eccentric anomaly
121.52992°
Mean motion
3.63884 °/min
Orbital period
98.93 mins
BSTAR
0.00049859

Documentation

Showing up to 5 results
|